Simultaneous Nadir Overpasses (SNOs) Predictions

Prediction of SNOs between METOP-B and TERRA Satellite Orbit:

Table of predicted SNOs for the next 14.0 days since TLE Epoch: 11/9/2024
Index Date (METOP-B) Time (METOP-B) Lat,Lon (METOP-B) SZA (METOP-B ) Date (TERRA) Time (TERRA) Lat,Lon (TERRA) SZA (TERRA ) Distance(km) Time Diff (sec)
1 11/11/2024 10:39:18 79.35, 32.56 97.32 11/11/2024 10:40:27 79.36, 32.65 97.35 2.28 69
2 11/11/2024 11:29:50 -79.66,-157.64 82.25 11/11/2024 11:29:40 -79.66,-157.72 82.26 1.63 10
3 11/14/2024 01:09:20 79.40, 175.40 98.07 11/14/2024 01:10:02 79.41, 175.50 98.09 2.16 42
4 11/14/2024 01:59:50 -79.74, -14.49 81.45 11/14/2024 01:59:13 -79.74, -14.61 81.47 2.57 37
5 11/16/2024 15:39:18 79.53, -41.10 98.90 11/16/2024 15:39:32 79.53, -41.11 98.90 0.09 14
6 11/16/2024 16:29:53 -79.74, 127.95 80.80 11/16/2024 16:28:47 -79.74, 127.99 80.82 0.86 66
7 11/19/2024 05:18:46 -79.34, -67.44 80.76 11/19/2024 05:19:49 -79.35, -67.38 80.74 1.44 63
8 11/19/2024 06:09:19 79.58, 101.71 99.57 11/19/2024 06:09:03 79.58, 101.80 99.58 2.00 16
9 11/21/2024 19:48:45 -79.44, 75.75 80.06 11/21/2024 19:49:17 -79.44, 75.80 80.05 1.03 32



Historial Predications of SNOs between METOP-B and TERRA
